Regional Weather Roundup
Issued by NWS

Home | Current Version | Previous Version | Graphics & Text | Print | Product List | Glossary On
Versions: 1 2 3 4 5 6 7 8 9 10 11 12 13 14 15 16 17 18 19 20 21 22 23 24 25 26 27 28 29 30 31 32 33 34 35 36 37 38 39 40 41 42 43 44 45 46 47 48 49 50
000
ASUS43 KIND 300309
RWRIN

WEATHER ROUNDUP FOR INDIANA
NATIONAL WEATHER SERVICE INDIANAPOLIS IN
1100 PM EDT SAT AUG 29 2015

NOTE: "FAIR" INDICATES FEW OR NO CLOUDS BELOW 12,000 FEET WITH NO
SIGNIFICANT WEATHER AND/OR OBSTRUCTIONS TO VISIBILITY.

* - STATION DOES NOT REPORT WEATHER SUCH AS PRECIPITATION OR FOG.

+ - STATION NOT QUALITY CONTROLLED BY THE NATIONAL WEATHER SERVICE.
    USE DATA WITH CAUTION...ESPECIALLY DEWPOINT AND RELATIVE
    HUMIDITY OBSERVATIONS.

INZ001>003-010>013-019-020-300400-
NORTHWEST INDIANA

CITY           SKY/WX    TMP DP  RH WIND       PRES   REMARKS
GARY /AIRPORT/ CLOUDY    70  64  83 CALM      30.05R
KNOX *+        CLOUDY    68  68 100 SW10      30.03S
LA PORTE +     CLOUDY   N/A N/A N/A CALM      30.04F FOG
MICHIGAN CITY+ CLOUDY    70  70 100 CALM      30.03S
MONTICELLO +   HVY RAIN  68  68 100 SW7       30.05R
RENSSELAER +   CLOUDY    70  70 100 S3        30.04S FOG
VALPARAISO     CLOUDY    70  67  90 S5        30.04S

$$

LMZ046-743>745-300400-
SOUTHERN LAKE MICHIGAN

STATION/POSITION TIME  TEMP    WIND        PRES    WAVE
                       AIR SEA DIR/SP/G            HT
                 (UTC) (F)     (DEG/KT/KT) (MB)    (FT)
BURNS HARBOR     0200   70     250/  5/  7 1016.9R
MICHIGAN CITY    0200   71     140/  7/  8   N/A
5NW MICH CITY    0300   71 70  230/  4/  6   N/A     0

$$

INZ004-005-014>016-021>024-300400-
NORTH CENTRAL INDIANA

CITY           SKY/WX    TMP DP  RH WIND       PRES   REMARKS
GOSHEN         CLOUDY    69  66  90 SE6       30.05R
LOGANSPORT +   LGT RAIN  68  64  88 E6        30.06S
PERU/GRISSOM   LGT RAIN  70  64  83 S8        30.05S
ROCHESTER +    CLOUDY    70  68  94 S3        30.05F
SOUTH BEND     CLOUDY    69  68  96 SE5       30.04S FOG
WARSAW +       CLOUDY    68  66  94 CALM      30.05S

$$

INZ006>009-017-018-025>027-300400-
NORTHEAST INDIANA

CITY           SKY/WX    TMP DP  RH WIND       PRES   REMARKS
ANGOLA *+      CLOUDY    66  57  72 SE3       30.07S
AUBURN +       CLOUDY    70  66  88 W6        30.09R FOG
FORT WAYNE     LGT RAIN  71  69  93 E8        30.07S
HUNTINGTON +   CLOUDY    70  67  89 E3        30.06S FOG

$$

INZ028-029-035-036-043>045-051>053-300400-
WEST CENTRAL INDIANA

CITY           SKY/WX    TMP DP  RH WIND       PRES   REMARKS
CRAWFORDSVL +  CLOUDY    70  66  86 S3        30.05S
GREENCASTLE +  CLOUDY    70  64  83 CALM      30.07S
LAFAYETTE      CLOUDY    72  69  90 S6        30.04R
TERRE HAUTE    CLOUDY    71  66  84 CALM      30.05R

$$

INZ030>032-037>040-046>048-054>057-064-065-300400-
CENTRAL INDIANA

CITY           SKY/WX    TMP DP  RH WIND       PRES   REMARKS
FRANKFORT +    CLOUDY   N/A N/A N/A CALM      30.07F
GREENWOOD *+   CLOUDY    70  66  88 CALM      30.08R
INDIANAPOLIS   CLOUDY    74  67  78 S5        30.05R
-EAGLE CREEK   CLOUDY    74  69  85 CALM      30.06R
KOKOMO *+      CLOUDY    70  61  73 SW8       30.07S
MARION +       CLOUDY    70  64  80 CALM      30.08R
MT COMFORT *+  CLOUDY    68 N/A N/A CALM      30.07S
SHELBYVILLE    CLOUDY    72  68  87 CALM      30.06R
ZIONSVILLE +   CLOUDY    70  67  88 CALM      30.07F

$$

INZ033-034-041-042-049-050-058-059-300400-
EAST CENTRAL INDIANA

CITY           SKY/WX    TMP DP  RH WIND       PRES   REMARKS
MUNCIE         CLOUDY    73  67  81 S5        30.07S

$$

INZ060-061-067>069-081>083-085>088-300400-
SOUTHWEST INDIANA

CITY           SKY/WX    TMP DP  RH WIND       PRES   REMARKS
EVANSVILLE     CLOUDY    74  71  91 CALM      30.05R
HUNTINGBURG *+ MOCLDY    73  68  83 CALM      30.06S
WASHINGTON +   CLOUDY    70  66  87 CALM      30.05R

$$

INZ062-063-066-070>080-084-089>092-300400-
SOUTH CENTRAL AND SOUTHEAST INDIANA

CITY           SKY/WX    TMP DP  RH WIND       PRES   REMARKS
BLOOMINGTON    CLOUDY    70  68  93 CALM      30.07R
MADISON *+     MOCLDY    72  68  88 S5        30.10R
NORTH VERNON + CLOUDY    73  73 100 CALM      30.07S
SEYMOUR +      CLOUDY    72  70  94 CALM      30.06R

$$




USA.gov is the U.S. government's official web portal to all federal, state and local government web resources and services.